THY3RS LTFM-LTAC

Flight info

Callsign THY3RS
Flight time 0h 58m
Altitude 27000
Route VICEN1D/35L VICEN T380 ASMAP L333 LATGA
Aircraft A319/M-SDE3FGHIRWY/LB1

Departure

Time 2026-05-06 11:59
Airport İstanbul Airport (LTFM)

Arrival

Time 2026-05-06 12:58
Airport Esenboğa International Airport (LTAC)
Time Latitude Longitude Altitude Speed Heading
2026-05-06 11:27 41.26356 28.73935 330 ft 0 kts 198°
2026-05-06 11:46 41.26378 28.73944 330 ft 4 kts 198°
2026-05-06 11:46 41.26403 28.73955 330 ft 4 kts 198°
2026-05-06 11:46 41.26429 28.73966 329 ft 4 kts 198°
2026-05-06 11:46 41.26441 28.73972 330 ft 0 kts 198°
2026-05-06 11:47 41.26426 28.73965 330 ft 0 kts 198°
2026-05-06 11:51 41.26425 28.73965 330 ft 1 kts 198°
2026-05-06 11:51 41.26421 28.73963 331 ft 0 kts 203°
2026-05-06 11:51 41.26421 28.73962 331 ft 1 kts 205°
2026-05-06 11:51 41.26414 28.73935 331 ft 2 kts 298°
2026-05-06 11:52 41.26452 28.73919 332 ft 9 kts 341°
2026-05-06 11:52 41.26502 28.73897 334 ft 9 kts 341°
2026-05-06 11:52 41.26571 28.73879 334 ft 11 kts 358°
2026-05-06 11:52 41.26659 28.73877 332 ft 14 kts 359°
2026-05-06 11:53 41.26764 28.73875 333 ft 17 kts 359°
2026-05-06 11:53 41.26889 28.73872 333 ft 19 kts 359°
2026-05-06 11:53 41.27009 28.73869 331 ft 16 kts 358°
2026-05-06 11:53 41.27050 28.73751 334 ft 17 kts 268°
2026-05-06 11:54 41.27048 28.73588 331 ft 19 kts 269°
2026-05-06 11:54 41.27045 28.73414 334 ft 19 kts 269°
2026-05-06 11:54 41.27043 28.73259 334 ft 16 kts 269°
2026-05-06 11:54 41.27042 28.73148 334 ft 5 kts 269°
2026-05-06 11:55 41.27041 28.73088 334 ft 9 kts 269°
2026-05-06 11:55 41.27013 28.72992 334 ft 14 kts 199°
2026-05-06 11:55 41.26898 28.72989 333 ft 19 kts 179°
2026-05-06 11:55 41.26786 28.72991 333 ft 10 kts 179°
2026-05-06 11:56 41.26719 28.72969 334 ft 9 kts 239°
2026-05-06 11:56 41.26717 28.72936 334 ft 0 kts 268°
2026-05-06 11:56 41.26716 28.72914 334 ft 6 kts 268°
2026-05-06 11:57 41.26715 28.72828 334 ft 12 kts 268°
2026-05-06 11:57 41.26713 28.72684 334 ft 19 kts 270°
2026-05-06 11:57 41.26719 28.72529 333 ft 12 kts 298°
2026-05-06 11:57 41.26777 28.72513 331 ft 8 kts
2026-05-06 11:58 41.26789 28.72513 330 ft 0 kts 357°
2026-05-06 11:58 41.26836 28.72512 333 ft 28 kts 359°
2026-05-06 11:58 41.27249 28.72502 332 ft 90 kts 359°
2026-05-06 11:59 41.28051 28.72484 334 ft 143 kts 359°
2026-05-06 11:59 41.29111 28.72460 745 ft 153 kts
2026-05-06 11:59 41.30173 28.72432 1418 ft 154 kts 359°
2026-05-06 11:59 41.31322 28.72414 1763 ft 176 kts 359°
2026-05-06 12:00 41.32600 28.72395 2210 ft 192 kts 359°
2026-05-06 12:00 41.34023 28.72402 2628 ft 216 kts 359°
2026-05-06 12:00 41.35610 28.72436 3144 ft 240 kts 360°
2026-05-06 12:00 41.37312 28.72126 3823 ft 255 kts 334°
2026-05-06 12:01 41.38605 28.70549 4808 ft 258 kts 299°
2026-05-06 12:01 41.39022 28.68216 5814 ft 264 kts 274°
2026-05-06 12:01 41.38909 28.65749 6782 ft 270 kts 266°
2026-05-06 12:01 41.38645 28.63244 7682 ft 275 kts 265°
2026-05-06 12:02 41.38390 28.60703 8566 ft 280 kts 266°
2026-05-06 12:02 41.37793 28.58194 9413 ft 293 kts 243°
2026-05-06 12:02 41.36388 28.56159 10220 ft 309 kts 218°
2026-05-06 12:02 41.34321 28.55050 10514 ft 337 kts 189°
2026-05-06 12:03 41.31896 28.54825 10762 ft 361 kts 181°
2026-05-06 12:03 41.29340 28.54899 11277 ft 372 kts 174°
2026-05-06 12:03 41.26808 28.55678 11990 ft 376 kts 160°
2026-05-06 12:03 41.24408 28.57095 12711 ft 379 kts 150°
2026-05-06 12:04 41.22196 28.59024 13422 ft 382 kts 140°
2026-05-06 12:04 41.20217 28.61392 14104 ft 385 kts 135°
2026-05-06 12:04 41.18262 28.63857 14732 ft 388 kts 135°
2026-05-06 12:04 41.16301 28.66341 15361 ft 392 kts 135°
2026-05-06 12:05 41.14327 28.68853 16002 ft 395 kts 134°
2026-05-06 12:05 41.12454 28.71537 16617 ft 397 kts 126°
2026-05-06 12:05 41.10920 28.74523 17229 ft 399 kts 120°
2026-05-06 12:05 41.09409 28.77622 17863 ft 402 kts 120°
2026-05-06 12:06 41.07873 28.80750 18484 ft 406 kts 121°
2026-05-06 12:06 41.06317 28.83903 18935 ft 410 kts 121°
2026-05-06 12:06 41.04750 28.87069 19074 ft 411 kts 121°
2026-05-06 12:06 41.03187 28.90226 19110 ft 411 kts 121°
2026-05-06 12:07 41.01467 28.93278 19111 ft 413 kts 129°
2026-05-06 12:07 40.99449 28.96002 19168 ft 417 kts 134°
2026-05-06 12:07 40.97377 28.98696 19681 ft 418 kts 134°
2026-05-06 12:07 40.95297 29.01403 20228 ft 421 kts 134°
2026-05-06 12:08 40.93228 29.04089 20757 ft 424 kts 134°
2026-05-06 12:08 40.91115 29.06830 21254 ft 427 kts 134°
2026-05-06 12:08 40.88987 29.09590 21765 ft 430 kts 134°
2026-05-06 12:08 40.86910 29.12449 22241 ft 433 kts 129°
2026-05-06 12:09 40.85161 29.15687 22731 ft 434 kts 119°
2026-05-06 12:09 40.83820 29.19258 23201 ft 435 kts 110°
2026-05-06 12:09 40.82908 29.23077 23652 ft 436 kts 102°
2026-05-06 12:09 40.82148 29.26968 24052 ft 439 kts 103°
2026-05-06 12:10 40.81376 29.30882 24458 ft 441 kts 103°
2026-05-06 12:10 40.80599 29.34810 24847 ft 443 kts 103°
2026-05-06 12:10 40.79817 29.38749 25234 ft 446 kts 103°
2026-05-06 12:10 40.79022 29.42728 25622 ft 448 kts 103°
2026-05-06 12:11 40.78222 29.46710 26013 ft 451 kts 103°
2026-05-06 12:11 40.77424 29.50670 26405 ft 453 kts 103°
2026-05-06 12:11 40.76613 29.54701 26820 ft 455 kts 103°
2026-05-06 12:11 40.75800 29.58745 27059 ft 456 kts 103°
2026-05-06 12:12 40.74988 29.62783 27096 ft 456 kts 103°
2026-05-06 12:12 40.74173 29.66828 27095 ft 456 kts 103°
2026-05-06 12:12 40.73547 29.70917 27094 ft 453 kts 95°
2026-05-06 12:12 40.73367 29.75054 27092 ft 451 kts 88°
2026-05-06 12:13 40.73311 29.79193 27097 ft 452 kts 89°
2026-05-06 12:13 40.73242 29.83331 27107 ft 452 kts 89°
2026-05-06 12:13 40.73162 29.87476 27096 ft 452 kts 89°
2026-05-06 12:13 40.73076 29.91615 27098 ft 452 kts 89°
2026-05-06 12:14 40.72990 29.95752 27098 ft 452 kts 89°
2026-05-06 12:14 40.72905 29.99896 27097 ft 451 kts 89°
2026-05-06 12:14 40.72784 30.04035 27083 ft 452 kts 93°
2026-05-06 12:14 40.72276 30.08138 27085 ft 455 kts 102°
2026-05-06 12:15 40.71323 30.12125 27094 ft 457 kts 108°
2026-05-06 12:15 40.70269 30.16073 27083 ft 457 kts 107°
2026-05-06 12:15 40.69217 30.20030 27084 ft 457 kts 107°
2026-05-06 12:15 40.68182 30.23939 27085 ft 458 kts 107°
2026-05-06 12:16 40.67151 30.27901 27091 ft 457 kts 105°
2026-05-06 12:16 40.66437 30.31967 27089 ft 455 kts 96°
2026-05-06 12:16 40.66088 30.36097 27092 ft 454 kts 93°
2026-05-06 12:16 40.65760 30.40235 27106 ft 454 kts 94°
2026-05-06 12:17 40.65414 30.44383 27093 ft 456 kts 94°
2026-05-06 12:17 40.65068 30.48442 27099 ft 456 kts 94°
2026-05-06 12:17 40.64715 30.52593 27103 ft 456 kts 94°
2026-05-06 12:17 40.64361 30.56742 27107 ft 456 kts 94°
2026-05-06 12:18 40.64009 30.60885 27107 ft 456 kts 94°
2026-05-06 12:18 40.63658 30.65028 27104 ft 456 kts 94°
2026-05-06 12:18 40.63303 30.69185 27108 ft 456 kts 95°
2026-05-06 12:18 40.62693 30.73293 27104 ft 458 kts 103°
2026-05-06 12:19 40.61834 30.77333 27109 ft 458 kts 103°
2026-05-06 12:19 40.60977 30.81373 27102 ft 458 kts 103°
2026-05-06 12:19 40.60120 30.85423 27105 ft 459 kts 103°
2026-05-06 12:19 40.59268 30.89462 27103 ft 458 kts 103°
2026-05-06 12:20 40.58422 30.93453 27107 ft 459 kts 103°
2026-05-06 12:20 40.57562 30.97495 27117 ft 459 kts 103°
2026-05-06 12:20 40.56699 31.01545 27102 ft 460 kts 103°
2026-05-06 12:20 40.55836 31.05589 27103 ft 461 kts 103°
2026-05-06 12:21 40.54968 31.09645 27111 ft 461 kts 103°
2026-05-06 12:21 40.54098 31.13699 27100 ft 461 kts 103°
2026-05-06 12:21 40.53227 31.17754 27107 ft 460 kts 103°
2026-05-06 12:21 40.52354 31.21809 27102 ft 460 kts 103°
2026-05-06 12:22 40.51483 31.25861 27115 ft 461 kts 103°
2026-05-06 12:22 40.50609 31.29917 27113 ft 462 kts 103°
2026-05-06 12:22 40.49729 31.33979 27106 ft 462 kts 103°
2026-05-06 12:22 40.48848 31.38036 27108 ft 461 kts 103°
2026-05-06 12:23 40.47965 31.42085 27104 ft 462 kts 103°
2026-05-06 12:23 40.47082 31.46137 27099 ft 462 kts 103°
2026-05-06 12:23 40.46200 31.50190 27109 ft 461 kts 103°
2026-05-06 12:23 40.45319 31.54239 27111 ft 462 kts 103°
2026-05-06 12:24 40.44434 31.58301 27095 ft 463 kts 103°
2026-05-06 12:24 40.43546 31.62369 27102 ft 463 kts 103°
2026-05-06 12:24 40.42657 31.66424 27101 ft 463 kts 103°
2026-05-06 12:24 40.41759 31.70489 27100 ft 463 kts 103°
2026-05-06 12:25 40.40860 31.74545 27103 ft 463 kts 103°
2026-05-06 12:25 40.40264 31.77236 27103 ft 463 kts 103°
2026-05-06 12:25 40.39366 31.81301 27099 ft 463 kts 103°
2026-05-06 12:25 40.38472 31.85358 27105 ft 464 kts 103°
2026-05-06 12:26 40.37575 31.89420 27100 ft 464 kts 103°
2026-05-06 12:26 40.36672 31.93484 27100 ft 464 kts 103°
2026-05-06 12:26 40.35764 31.97553 27100 ft 464 kts 103°
2026-05-06 12:26 40.34850 32.01617 27099 ft 464 kts 104°
2026-05-06 12:27 40.33932 32.05682 27097 ft 464 kts 103°
2026-05-06 12:27 40.33020 32.09733 27095 ft 464 kts 103°
2026-05-06 12:27 40.32106 32.13795 27111 ft 465 kts 103°
2026-05-06 12:27 40.31231 32.17819 27090 ft 464 kts 99°
2026-05-06 12:28 40.31005 32.21978 27093 ft 455 kts 81°
2026-05-06 12:28 40.31658 32.26040 27093 ft 447 kts 67°
2026-05-06 12:28 40.32826 32.29730 27090 ft 443 kts 59°
2026-05-06 12:28 40.34125 32.33400 27090 ft 444 kts 61°
2026-05-06 12:29 40.35362 32.37107 27086 ft 444 kts 62°
2026-05-06 12:29 40.36320 32.40980 27101 ft 452 kts 76°
2026-05-06 12:29 40.36433 32.45126 27087 ft 460 kts 93°
2026-05-06 12:29 40.35682 32.49212 27086 ft 466 kts 109°
2026-05-06 12:30 40.34122 32.52902 27084 ft 457 kts 123°
2026-05-06 12:30 40.32319 32.56243 27094 ft 441 kts 124°
2026-05-06 12:30 40.30615 32.59504 27082 ft 424 kts 117°
2026-05-06 12:30 40.29523 32.62986 27085 ft 404 kts 100°
2026-05-06 12:31 40.29175 32.66529 27082 ft 383 kts 84°
2026-05-06 12:31 40.29485 32.69879 27080 ft 360 kts 70°
2026-05-06 12:31 40.30314 32.72867 27086 ft 338 kts 57°
2026-05-06 12:31 40.31538 32.75403 27088 ft 324 kts 44°
2026-05-06 12:32 40.33083 32.77487 27086 ft 314 kts 33°
2026-05-06 12:32 40.34864 32.79091 27087 ft 308 kts 22°
2026-05-06 12:32 40.36806 32.80195 27083 ft 302 kts 12°
2026-05-06 12:32 40.38841 32.80783 27081 ft 298 kts
2026-05-06 12:33 40.40898 32.80855 27083 ft 294 kts 352°
2026-05-06 12:33 40.42883 32.80435 27102 ft 291 kts 342°
2026-05-06 12:33 40.44778 32.79540 27087 ft 289 kts 333°
2026-05-06 12:33 40.46508 32.78213 27084 ft 288 kts 324°
2026-05-06 12:34 40.48026 32.76491 27083 ft 289 kts 315°
2026-05-06 12:34 40.49345 32.74494 27082 ft 290 kts 310°
2026-05-06 12:34 40.50559 32.72360 27077 ft 292 kts 308°
2026-05-06 12:34 40.51727 32.70166 27082 ft 293 kts 307°
2026-05-06 12:35 40.52883 32.67948 27080 ft 294 kts 307°
2026-05-06 12:35 40.54040 32.65738 27081 ft 293 kts 307°
2026-05-06 12:35 40.55209 32.63531 27081 ft 293 kts 307°
2026-05-06 12:35 40.56370 32.61325 27079 ft 294 kts 304°
2026-05-06 12:36 40.57321 32.58931 27079 ft 296 kts 295°
2026-05-06 12:36 40.57931 32.56329 27079 ft 300 kts 285°
2026-05-06 12:36 40.58156 32.53577 27078 ft 305 kts 275°
2026-05-06 12:36 40.57963 32.50771 27078 ft 311 kts 264°
2026-05-06 12:37 40.57341 32.48019 27077 ft 318 kts 253°
2026-05-06 12:37 40.56304 32.45462 27078 ft 324 kts 241°
2026-05-06 12:37 40.54848 32.43162 27078 ft 332 kts 229°
2026-05-06 12:37 40.53018 32.41276 27077 ft 338 kts 216°
2026-05-06 12:38 40.50880 32.39914 27082 ft 345 kts 203°
2026-05-06 12:38 40.48525 32.39187 27082 ft 351 kts 189°
2026-05-06 12:38 40.46073 32.39162 27067 ft 354 kts 176°
2026-05-06 12:38 40.43666 32.39845 26756 ft 355 kts 161°
2026-05-06 12:39 40.41444 32.41232 26423 ft 354 kts 147°
2026-05-06 12:39 40.39527 32.43218 26096 ft 350 kts 133°
2026-05-06 12:39 40.38004 32.45681 25792 ft 345 kts 121°
2026-05-06 12:39 40.36639 32.48266 25484 ft 344 kts 122°
2026-05-06 12:40 40.35251 32.50821 25175 ft 342 kts 123°
2026-05-06 12:40 40.33867 32.53342 24881 ft 340 kts 123°
2026-05-06 12:40 40.32491 32.55851 24603 ft 338 kts 123°
2026-05-06 12:40 40.31136 32.58354 24329 ft 335 kts 120°
2026-05-06 12:41 40.30214 32.61095 24052 ft 324 kts 97°
2026-05-06 12:41 40.30068 32.63976 23772 ft 312 kts 77°
2026-05-06 12:41 40.30634 32.66646 23442 ft 300 kts 58°
2026-05-06 12:41 40.31753 32.68836 23095 ft 291 kts 41°
2026-05-06 12:42 40.33313 32.70462 22638 ft 285 kts 24°
2026-05-06 12:42 40.35143 32.71374 22182 ft 281 kts
2026-05-06 12:42 40.37086 32.71530 21730 ft 280 kts 352°
2026-05-06 12:42 40.38974 32.70924 21286 ft 280 kts 336°
2026-05-06 12:43 40.40641 32.69606 20851 ft 281 kts 320°
2026-05-06 12:43 40.41989 32.67734 20421 ft 283 kts 310°
2026-05-06 12:43 40.43186 32.65675 19992 ft 285 kts 307°
2026-05-06 12:43 40.44327 32.63541 19574 ft 286 kts 306°
2026-05-06 12:44 40.45454 32.61384 19162 ft 287 kts 306°
2026-05-06 12:44 40.46584 32.59224 18756 ft 288 kts 306°
2026-05-06 12:44 40.47672 32.57016 18346 ft 289 kts 297°
2026-05-06 12:44 40.48306 32.54508 17882 ft 292 kts 280°
2026-05-06 12:45 40.48333 32.51836 17428 ft 296 kts 263°
2026-05-06 12:45 40.47717 32.49256 16983 ft 299 kts 245°
2026-05-06 12:45 40.44776 32.45447 16108 ft 305 kts 206°
2026-05-06 12:46 40.42746 32.44644 15613 ft 307 kts 187°
2026-05-06 12:46 40.40612 32.44753 15103 ft 308 kts 167°
2026-05-06 12:46 40.38626 32.45768 14608 ft 307 kts 147°
2026-05-06 12:46 40.37001 32.47550 14133 ft 307 kts 131°
2026-05-06 12:47 40.35573 32.49734 13631 ft 323 kts 129°
2026-05-06 12:47 40.34173 32.52019 13090 ft 321 kts 124°
2026-05-06 12:47 40.33161 32.54749 12568 ft 341 kts 110°
2026-05-06 12:47 40.32323 32.57717 12048 ft 346 kts 110°
2026-05-06 12:48 40.31493 32.60637 11909 ft 345 kts 113°
2026-05-06 12:48 40.30183 32.63373 11913 ft 365 kts 131°
2026-05-06 12:48 40.28195 32.65493 11904 ft 364 kts 151°
2026-05-06 12:48 40.25896 32.66632 11712 ft 346 kts 168°
2026-05-06 12:49 40.23560 32.66803 11452 ft 329 kts 186°
2026-05-06 12:49 40.21368 32.66216 11202 ft 315 kts 194°
2026-05-06 12:49 40.19297 32.65548 11061 ft 298 kts 194°
2026-05-06 12:49 40.17331 32.64921 10933 ft 284 kts 193°
2026-05-06 12:50 40.15448 32.64322 10770 ft 280 kts 193°
2026-05-06 12:50 40.13527 32.63712 10591 ft 287 kts 193°
2026-05-06 12:50 40.11618 32.63109 10397 ft 277 kts 192°
2026-05-06 12:50 40.09747 32.63037 10245 ft 265 kts 168°
2026-05-06 12:51 40.08100 32.63966 10108 ft 254 kts 143°
2026-05-06 12:51 40.06940 32.65623 9963 ft 245 kts 121°
2026-05-06 12:51 40.06353 32.67715 9476 ft 248 kts 103°
2026-05-06 12:51 40.05964 32.69910 9048 ft 248 kts 103°
2026-05-06 12:52 40.05483 32.72056 8618 ft 245 kts 113°
2026-05-06 12:52 40.04657 32.73973 8243 ft 240 kts 127°
2026-05-06 12:52 40.03670 32.75710 7876 ft 237 kts 128°
2026-05-06 12:52 40.02703 32.77432 7510 ft 234 kts 127°
2026-05-06 12:53 40.01755 32.79130 7150 ft 230 kts 127°
2026-05-06 12:53 40.00830 32.80788 6793 ft 226 kts 127°
2026-05-06 12:53 39.99908 32.82438 6450 ft 223 kts 127°
2026-05-06 12:53 39.99152 32.84119 6403 ft 213 kts 108°
2026-05-06 12:54 39.99167 32.85976 6282 ft 200 kts 71°
2026-05-06 12:54 39.99930 32.87413 5987 ft 191 kts 38°
2026-05-06 12:54 40.00985 32.88413 5706 ft 184 kts 34°
2026-05-06 12:54 40.01995 32.89373 5463 ft 174 kts 35°
2026-05-06 12:55 40.02946 32.90277 5232 ft 164 kts 35°
2026-05-06 12:55 40.03855 32.91140 5030 ft 156 kts 34°
2026-05-06 12:55 40.04718 32.91961 4825 ft 151 kts 34°
2026-05-06 12:55 40.05566 32.92766 4628 ft 149 kts 35°
2026-05-06 12:56 40.06391 32.93549 4414 ft 146 kts 33°
2026-05-06 12:56 40.07222 32.94338 4218 ft 149 kts 34°
2026-05-06 12:56 40.08054 32.95129 3975 ft 147 kts 32°
2026-05-06 12:56 40.08864 32.95900 3764 ft 140 kts 32°
2026-05-06 12:57 40.09634 32.96633 3582 ft 136 kts 32°
2026-05-06 12:57 40.10394 32.97356 3397 ft 134 kts 34°
2026-05-06 12:57 40.11143 32.98074 3218 ft 133 kts 33°
2026-05-06 12:57 40.11881 32.98769 3130 ft 121 kts 34°
2026-05-06 12:58 40.12422 32.99282 3129 ft 71 kts 36°
2026-05-06 12:58 40.12710 32.99560 3133 ft 45 kts 36°
2026-05-06 12:58 40.12937 32.99780 3130 ft 35 kts 41°
2026-05-06 12:58 40.13054 32.99997 3128 ft 21 kts 64°
2026-05-06 12:59 40.13093 33.00128 3127 ft 12 kts 88°
2026-05-06 12:59 40.13028 33.00167 3126 ft 14 kts 211°
2026-05-06 12:59 40.12943 33.00087 3127 ft 15 kts 216°
2026-05-06 12:59 40.12854 33.00003 3128 ft 17 kts 216°
2026-05-06 13:00 40.12755 32.99910 3126 ft 18 kts 217°
2026-05-06 13:00 40.12656 32.99815 3131 ft 18 kts 215°
2026-05-06 13:00 40.12548 32.99711 3127 ft 20 kts 216°
2026-05-06 13:00 40.12434 32.99602 3127 ft 20 kts 216°
2026-05-06 13:01 40.12308 32.99482 3123 ft 24 kts 216°
2026-05-06 13:01 40.12201 32.99380 3124 ft 19 kts 216°
2026-05-06 13:01 40.12092 32.99276 3125 ft 18 kts 216°
2026-05-06 13:01 40.11993 32.99182 3126 ft 18 kts 216°
2026-05-06 13:02 40.11889 32.99083 3128 ft 17 kts 216°
2026-05-06 13:02 40.11796 32.99061 3126 ft 16 kts 134°
2026-05-06 13:02 40.11727 32.99126 3126 ft 12 kts 162°
2026-05-06 13:02 40.11673 32.99092 3123 ft 4 kts 224°
2026-05-06 13:03 40.11644 32.99090 3126 ft 5 kts 159°
2026-05-06 13:03 40.11621 32.99108 3124 ft 0 kts 148°
2026-05-06 13:03 40.11609 32.99117 3126 ft 0 kts 148°
2026-05-06 13:03 40.11605 32.99121 3126 ft 0 kts 147°